Good Hope, IL

9:02 PM CDT on September 26, 2016 (GMT -0500)
Macomb Municipal

Weather History for KMQB - February, 2012

Change the Weather History Date:

Sunday, February 26, 2012

  Actual Average (KBRL) Record (KBRL)
Temperature  
Mean Temperature 44 °F 34 °F  
Max Temperature 62 °F 43 °F 69 °F (1996)
Min Temperature 27 °F 25 °F -11 °F (1950)
Degree Days  
Heating Degree Days 20 31  
Month to date heating degree days 915  
Since 1 July heating degree days 4316  
Cooling Degree Days 0 0  
Month to date cooling degree days 0  
Year to date cooling degree days 0  
Moisture  
Dew Point 25 °F    
Average Humidity 52    
Maximum Humidity 77    
Minimum Humidity 28    
Precipitation  
Precipitation 0.00 in 0.08 in 0.98 in (1997)
Month to date precipitation 1.47  
Year to date precipitation 2.71  
Sea Level Pressure  
Sea Level Pressure 30.06 in    
Wind  
Wind Speed 16 mph (South)    
Max Wind Speed 31 mph    
Max Gust Speed 39 mph    
Visibility 10 miles    
Events      
T = Trace of Precipitation, MM = Missing Value Source: NWS Daily Summary

Daily Weather History Graph

Daily Weather History Graph

Search for Another Location

Airport or City:

Trip Planner

Search our weather history database for the weather conditions in past years. The results will help you decide how hot, cold, wet, or windy it might be!

Date:

Astronomy

Feb. 26, 2012 Rise Set
Actual Time 6:41 AM CST 5:50 PM CST
Civil Twilight 6:14 AM CST 6:17 PM CST
Nautical Twilight 5:42 AM CST 6:49 PM CST
Astronomical Twilight 5:10 AM CST 7:20 PM CST
Moon 8:35 AM CST (2/26) 10:49 PM CST (2/26)
Length of Visible Light 12h 03m
Length of Day
11h 08m
Waxing Crescent, 21% of the Moon is Illuminated
Feb 26
Waxing Crescent
Feb 29
First Quarter
Mar 8
Full
Mar 14
Last Quarter
Mar 22
New

Hourly Weather History & Observations

Time (CST) Temp. Windchill Dew Point Humidity Pressure Visibility Wind Dir Wind Speed Gust Speed Precip Events Conditions
12:15 AM 27.3 °F 18.4 °F 20.8 °F 77% 30.22 in 10.0 mi SE 9.2 mph - N/A   Clear
12:35 AM 27.5 °F 18.0 °F 20.8 °F 76% 30.22 in 10.0 mi SE 10.4 mph - N/A   Clear
12:55 AM 27.5 °F 16.8 °F 20.5 °F 75% 30.22 in 10.0 mi SE 12.7 mph - N/A   Clear
1:15 AM 27.9 °F 17.3 °F 20.3 °F 73% 30.21 in 10.0 mi SE 12.7 mph - N/A   Clear
1:35 AM 27.7 °F 18.2 °F 20.3 °F 74% 30.22 in 10.0 mi SSE 10.4 mph 17.3 mph N/A   Clear
1:55 AM 27.5 °F 17.4 °F 20.3 °F 74% 30.20 in 10.0 mi SE 11.5 mph 16.1 mph N/A   Clear
2:15 AM 27.7 °F 17.6 °F 20.5 °F 74% 30.19 in 10.0 mi SE 11.5 mph - N/A   Clear
2:35 AM 28.0 °F 17.0 °F 20.8 °F 74% 30.18 in 10.0 mi SSE 13.8 mph 18.4 mph N/A   Clear
2:55 AM 28.8 °F 18.4 °F 21.0 °F 73% 30.18 in 10.0 mi SSE 12.7 mph - N/A   Clear
3:15 AM 28.9 °F 18.6 °F 21.2 °F 73% 30.17 in 10.0 mi SE 12.7 mph - N/A   Clear
3:35 AM 28.9 °F 18.6 °F 21.4 °F 73% 30.16 in 10.0 mi SSE 12.7 mph - N/A   Clear
3:55 AM 29.5 °F 18.0 °F 21.6 °F 72% 30.14 in 10.0 mi SSE 16.1 mph - N/A   Clear
4:15 AM 30.2 °F 18.9 °F 21.6 °F 70% 30.14 in 10.0 mi SSE 16.1 mph - N/A   Clear
4:35 AM 31.3 °F 20.3 °F 21.4 °F 67% 30.14 in 10.0 mi SSE 16.1 mph 23.0 mph N/A   Clear
4:55 AM 32.0 °F 21.6 °F 21.2 °F 64% 30.14 in 10.0 mi SSE 15.0 mph - N/A   Clear
5:15 AM 31.1 °F 20.9 °F 21.9 °F 69% 30.13 in 10.0 mi SSE 13.8 mph - N/A   Clear
5:35 AM 31.1 °F 20.1 °F 21.9 °F 69% 30.12 in 10.0 mi SSE 16.1 mph 20.7 mph N/A   Clear
5:55 AM 31.3 °F 20.7 °F 21.9 °F 68% 30.11 in 10.0 mi SSE 15.0 mph 21.9 mph N/A   Clear
6:15 AM 31.1 °F 20.1 °F 22.1 °F 69% 30.10 in 10.0 mi SSE 16.1 mph - N/A   Clear
6:35 AM 31.5 °F 20.5 °F 22.1 °F 68% 30.09 in 10.0 mi SSE 16.1 mph 21.9 mph N/A   Clear
6:55 AM 31.8 °F 20.6 °F 22.3 °F 68% 30.08 in 10.0 mi SSE 17.3 mph 21.9 mph N/A   Scattered Clouds
7:15 AM 32.5 °F 21.2 °F 23.0 °F 68% 30.07 in 10.0 mi SSE 18.4 mph 24.2 mph N/A   Mostly Cloudy
7:35 AM 34.0 °F 22.4 °F 22.8 °F 64% 30.07 in 10.0 mi South 20.7 mph 27.6 mph N/A   Scattered Clouds
7:55 AM 35.6 °F 24.2 °F 23.0 °F 60% 30.07 in 10.0 mi South 21.9 mph 26.5 mph N/A   Clear
8:15 AM 37.2 °F 26.7 °F 23.5 °F 58% 30.06 in 10.0 mi South 20.7 mph 28.8 mph N/A   Clear
8:35 AM 38.5 °F 27.5 °F 24.1 °F 56% 30.05 in 10.0 mi South 24.2 mph 28.8 mph N/A   Clear
8:55 AM 40.5 °F 30.4 °F 24.6 °F 53% 30.04 in 10.0 mi South 23.0 mph 29.9 mph N/A   Clear
9:15 AM 42.8 °F 33.1 °F 25.2 °F 50% 30.04 in 10.0 mi South 25.3 mph 31.1 mph N/A   Clear
9:35 AM 43.5 °F 34.7 °F 25.2 °F 48% 30.03 in 10.0 mi South 21.9 mph 32.2 mph N/A   Clear
9:55 AM 44.6 °F 35.9 °F 25.9 °F 48% 30.03 in 10.0 mi South 23.0 mph 29.9 mph N/A   Clear
10:15 AM 45.3 °F 36.3 °F 26.1 °F 47% 30.03 in 10.0 mi South 26.5 mph 33.4 mph N/A   Clear
10:35 AM 47.7 °F - 27.1 °F 45% 30.02 in 10.0 mi South 19.6 mph 32.2 mph N/A   Clear
10:55 AM 49.6 °F - 27.9 °F 43% 30.01 in 10.0 mi South 16.1 mph 26.5 mph N/A   Clear
11:15 AM 52.0 °F - 27.0 °F 38% 30.00 in 10.0 mi SSW 19.6 mph 34.5 mph N/A   Clear
11:35 AM 53.2 °F - 27.3 °F 37% 29.99 in 10.0 mi South 19.6 mph 24.2 mph N/A   Clear
11:55 AM 54.9 °F - 27.0 °F 34% 29.99 in 10.0 mi SSW 27.6 mph 34.5 mph N/A   Clear
12:15 PM 56.3 °F - 27.3 °F 33% 29.98 in 10.0 mi SW 28.8 mph 36.8 mph N/A   Clear
12:35 PM 56.5 °F - 27.7 °F 33% 29.98 in 10.0 mi SW 31.1 mph 38.0 mph N/A   Clear
12:55 PM 57.6 °F - 28.0 °F 32% 29.97 in 10.0 mi SSW 21.9 mph 36.8 mph N/A   Clear
1:15 PM 58.6 °F - 28.0 °F 31% 29.97 in 10.0 mi SW 27.6 mph 39.1 mph N/A   Clear
1:35 PM 59.4 °F - 28.4 °F 31% 29.97 in 10.0 mi SW 27.6 mph 34.5 mph N/A   Clear
1:55 PM 60.1 °F - 28.9 °F 31% 29.96 in 10.0 mi SW 18.4 mph 31.1 mph N/A   Clear
2:15 PM 60.4 °F - 28.4 °F 30% 29.96 in 10.0 mi SSW 23.0 mph 27.6 mph N/A   Clear
2:35 PM 60.8 °F - 28.4 °F 29% 29.96 in 10.0 mi SW 23.0 mph 28.8 mph N/A   Clear
2:55 PM 61.2 °F - 28.2 °F 29% 29.96 in 10.0 mi SW 20.7 mph 28.8 mph N/A   Clear
3:15 PM 61.7 °F - 28.8 °F 29% 29.96 in 10.0 mi SW 24.2 mph 32.2 mph N/A   Clear
3:35 PM 61.9 °F - 28.6 °F 28% 29.96 in 10.0 mi SW 20.7 mph 28.8 mph N/A   Clear
3:55 PM 62.1 °F - 29.3 °F 29% 29.96 in 10.0 mi SW 17.3 mph - N/A   Clear
4:15 PM 61.7 °F - 29.3 °F 29% 29.97 in 10.0 mi SW 17.3 mph 25.3 mph N/A   Clear
4:35 PM 61.0 °F - 30.4 °F 32% 29.97 in 10.0 mi WSW 12.7 mph 19.6 mph N/A   Clear
4:55 PM 59.9 °F - 29.8 °F 32% 29.98 in 10.0 mi WSW 17.3 mph - N/A   Clear
5:15 PM 59.0 °F - 29.7 °F 33% 29.98 in 10.0 mi WSW 10.4 mph 19.6 mph N/A   Clear
5:35 PM 56.1 °F - 31.1 °F 39% 29.99 in 10.0 mi WSW 8.1 mph - N/A   Clear
5:55 PM 51.3 °F - 32.0 °F 48% 30.00 in 10.0 mi WSW 6.9 mph - N/A   Clear
6:15 PM 48.2 °F - 32.0 °F 54% 30.01 in 10.0 mi SW 5.8 mph - N/A   Clear
6:35 PM 48.4 °F - 31.3 °F 52% 30.02 in 10.0 mi SW 5.8 mph - N/A   Clear
6:55 PM 47.3 °F - 30.4 °F 52% 30.03 in 10.0 mi SW 6.9 mph - N/A   Clear
7:15 PM 47.7 °F - 30.4 °F 51% 30.03 in 10.0 mi SW 6.9 mph - N/A   Clear
7:35 PM 48.6 °F - 31.1 °F 51% 30.04 in 10.0 mi SW 6.9 mph - N/A   Clear
7:55 PM 46.9 °F - 31.1 °F 54% 30.04 in 10.0 mi SW 8.1 mph - N/A   Clear
8:15 PM 46.8 °F - 31.1 °F 55% 30.04 in 10.0 mi SW 8.1 mph - N/A   Clear
8:35 PM 46.0 °F 39.3 °F 31.3 °F 56% 30.07 in 10.0 mi NW 16.1 mph 20.7 mph N/A   Clear
8:55 PM 45.3 °F 41.1 °F 32.0 °F 60% 30.09 in 10.0 mi NW 8.1 mph - N/A   Clear
9:15 PM 42.3 °F 38.6 °F 32.0 °F 67% 30.10 in 10.0 mi NNW 5.8 mph - N/A   Scattered Clouds
9:35 PM 40.1 °F 34.7 °F 32.0 °F 73% 30.10 in 10.0 mi NW 8.1 mph - N/A   Scattered Clouds
9:55 PM 39.0 °F 33.4 °F 31.8 °F 75% 30.11 in 10.0 mi NNW 8.1 mph - N/A   Clear
10:15 PM 37.8 °F 34.2 °F 31.3 °F 77% 30.12 in 10.0 mi North 4.6 mph - N/A   Clear
10:35 PM 39.2 °F 37.0 °F 31.3 °F 73% 30.13 in 10.0 mi North 3.5 mph - N/A   Clear
10:55 PM 37.4 °F 33.8 °F 30.9 °F 77% 30.13 in 10.0 mi North 4.6 mph - N/A   Clear
11:15 PM 35.8 °F 30.9 °F 30.7 °F 82% 30.15 in 10.0 mi North 5.8 mph - N/A   Clear
11:35 PM 33.8 °F 30.8 °F 29.7 °F 85% 30.16 in 10.0 mi NNE 3.5 mph - N/A   Clear
11:55 PM 34.7 °F 29.6 °F 29.3 °F 81% 30.16 in 10.0 mi North 5.8 mph - N/A   Clear